Flag for Pakistan Weather past 2 weeks in Narowal, Pakistan

Now
93 °F

Partly sunny.


Feels Like: 110 °F
Forecast: 71 / 94 °F
Wind: 3 mph from Northwest

Location: Amritsar Airport

Current Time: Sep 19, 2014 at 3:35:30 PM

Latest Report: Sep 19, 2014 at 3:00 PM


Visibility: 2 mi

Pressure: 29.65 "Hg

Humidity: 63%

Dew point: 79 °F

Location of NarowalLocation

Historic Weather in Narowal — Graph

°F

Narowal temperature yesterday

Maximum temperature yesterday: 95 °F (at 2:30 PM)
Minimum temperature yesterday: 75 °F (at 6:00 AM)
Average temperature yesterday: 86 °F

Past Weeks' High & Low Weather Summary

 TemperatureHumidityPressure
High95 °F (Sep 18, 2:30 PM)100% (Sep 4, 5:00 PM)29.80 "Hg (Sep 4, 5:00 PM)
Low72 °F (Sep 17, 5:30 AM)49% (Sep 15, 3:00 PM)29.42 "Hg (Sep 5, 7:30 PM)
Average82 °F86%29.67 "Hg
* Reported Sep 4 1:30 PM — Sep 19 1:30 PM, Narowal, Weather by CustomWeather, © 2014

Note: Actual official high and low records may vary slightly from our data, if they occured in-between our weather recording intervals... More about our weather records

Advertising

Narowal weather history for previous 24 hours

 ConditionsComfort  
Time TempWeatherWind HumidityBarometerVisibility
1:30 PM
Sep 19
93 °FHaze.3 mph63%29.68 "Hg2 mi
1:00 PM93 °FHaze.3 mph63%29.68 "Hg2 mi
11:00 AM88 °FHaze.2 mph66%29.74 "Hg2 mi
10:00 AM86 °FHaze.3 mph70%29.77 "Hg2 mi
9:30 AM86 °FFog.3 mph75%29.77 "Hg1 mi
9:00 AM84 °FFog.No wind79%29.74 "Hg1 mi
8:30 AM82 °FFog.No wind84%29.74 "Hg1 mi
8:00 AM81 °FFog.No wind89%29.74 "Hg1 mi
7:30 AM77 °FFog.No wind89%29.74 "Hg1 mi
7:00 AM75 °FFog.No wind100%29.71 "Hg1 mi
6:30 AM75 °FFog.No wind100%29.71 "Hg1 mi
5:30 AM77 °FFog.No wind100%29.68 "Hg1 mi
5:00 AM77 °FFog.No wind100%29.68 "Hg1 mi
4:30 AM77 °FFog.2 mph100%29.68 "Hg1 mi
4:00 AM79 °FFog.2 mph100%29.68 "Hg1 mi
3:30 AM79 °FFog.2 mph100%29.68 "Hg1 mi
3:00 AM79 °FFog.2 mph100%29.68 "Hg1 mi
2:30 AM79 °FFog.No wind100%29.68 "Hg1 mi
2:00 AM79 °FFog.2 mph100%29.68 "Hg1 mi
1:30 AM79 °FFog.2 mph100%29.71 "Hg1 mi
1:00 AM81 °FFog.2 mph94%29.68 "Hg1 mi
12:00 AM81 °FFog.No wind94%29.68 "Hg2 mi
11:30 PM
Sep 18
82 °FFog.No wind89%29.68 "Hg2 mi
11:00 PM82 °FFog.No wind89%29.68 "Hg2 mi
10:30 PM82 °FFog.No wind89%29.68 "Hg2 mi
10:00 PM84 °FFog.No wind79%29.68 "Hg2 mi
9:30 PM84 °FFog.No wind79%29.68 "Hg2 mi
9:00 PM84 °FFog.No wind79%29.68 "Hg2 mi
8:30 PM86 °FHaze.No wind70%29.65 "Hg2 mi
8:00 PM88 °FHaze.No wind66%29.65 "Hg2 mi
7:30 PM88 °FHaze.No wind62%29.65 "Hg2 mi
6:00 PM90 °FHaze.No wind55%29.65 "Hg3 mi
5:30 PM91 °FHaze.No wind52%29.65 "Hg3 mi
5:00 PM91 °FHaze.No wind52%29.65 "Hg3 mi
4:30 PM93 °FHaze.3 mph53%29.65 "Hg3 mi
4:00 PM93 °FHaze.3 mph56%29.65 "Hg3 mi
3:30 PM93 °FHaze.3 mph56%29.65 "Hg3 mi
3:00 PM93 °FHaze.3 mph56%29.65 "Hg3 mi
Weather by CustomWeather, © 2014

See weather overviewHow to use our weather pages